Location: Ballygorey
(52.2658°N, 7.2306°W)
Time: 13:57:13
(UTC+00:00)

Daily predictions for brighter satellites

Satellite Brightness Start Highest point End
(mag) Time Altitude Azimuth Time Altitude Azimuth Time Altitude Azimuth
Cosmos 1745 Rocket 4.1 21:27:14 10° S 21:33:27 88° W 21:39:47 10° N
SPOT 1/Viking Rocket 3.6 21:33:17 10° SSE 21:38:26 90° ENE 21:43:40 10° NNW
Cosmos 1953 Rocket 3.9 21:34:56 10° SSE 21:39:04 46° E 21:43:14 10° NNE
NOSS 7 (D) 3.7 21:36:59 10° SW 21:39:44 62° SE 21:42:23 10° NE
CZ-4C R/B 4.4 21:35:11 10° WNW 21:40:37 31° N 21:46:58 10° ENE
USA 267 3.4 21:36:20 10° ESE 21:42:54 81° NNE 21:49:30 10° WNW
SAR-Lupe-2 3.9 21:39:29 10° NNE 21:42:59 48° E 21:46:29 10° S
Cosmos 2084 3.6 21:38:44 10° NW 21:43:14 80° NE 21:47:41 10° SE
Cosmos 1328 3.8 21:39:49 10° S 21:43:47 74° E 21:47:46 10° NNE
Cosmos 1842 Rocket 4.5 21:40:44 10° N 21:44:46 35° ENE 21:48:45 10° SE
Cosmos 2322 Rocket 2.9 21:39:57 10° SW 21:45:30 62° NW 21:51:07 10° NNE
Cosmos 1455 3.4 21:42:13 10° NNW 21:45:51 41° W 21:49:29 10° SSW
Cosmos 2237 4.3 21:42:37 10° SSW 21:48:22 89° ESE 21:54:09 10° NNE
Cosmos 1825 Rocket 3.7 21:50:16 10° S 21:54:43 87° W 21:59:14 10° N
ATLAS CENTAUR R/B 1.0 21:51:05 10° NW 21:54:50 89° SW 21:58:26 10° SE
Cosmos 1703 3.5 21:53:39 10° SSW 21:57:31 71° WNW 22:01:26 10° N
Alouette 2 Rocket 4.0 21:54:15 10° NNW 21:57:54 57° WSW 22:02:35 10° S
Cosmos 1844 4.5 21:59:49 10° NW 22:05:22 48° WSW 22:10:50 10° S
COSMOS 2428 3.1 22:00:11 10° S 22:05:31 44° ESE 22:10:54 10° NE
Cosmos 1869 3.9 22:02:01 10° N 22:05:50 43° ENE 22:09:22 12° SE
Cosmos 2322 3.7 22:03:37 10° SSW 22:09:18 72° ESE 22:15:02 10° NE
NOSS 3-4 (A) 4.1 22:04:45 10° NW 22:11:29 66° NE 22:18:57 10° ESE
NOSS 3-4 (C) 4.1 22:04:52 10° NW 22:11:35 65° NE 22:19:03 10° ESE
Meteor 1-27 4.3 22:06:28 10° NNW 22:12:13 90° WSW 22:18:00 10° S
CARTOSAT-1 3.9 22:10:29 10° S 22:14:45 61° WSW 22:19:03 10° NNW
Terra 1.8 22:10:34 10° SSE 22:15:18 88° ENE 22:20:06 10° NNW
Cosmos 1709 Rocket 4.3 22:12:16 10° SSW 22:18:33 75° WNW 22:24:58 10° N
BREEZE-M DEB 4.1 22:15:03 10° W 22:18:34 53° S 22:30:26 10° ESE
Cosmos 2237 Rocket 3.4 22:14:58 11° SSE 22:19:11 25° ESE 22:23:45 10° NE
Cosmos 2333 4.2 22:15:27 10° SSW 22:21:06 83° ESE 22:26:52 10° NNE
Cosmos 2219 Rocket 2.2 22:15:45 10° SSW 22:21:15 62° ESE 22:26:48 10° NE
Cosmos 1538 Rocket 4.1 22:17:21 10° S 22:22:38 64° ESE 22:27:55 10° NNE
Cosmos 2360 Rocket 2.9 22:17:47 10° SW 22:23:21 59° NW 22:28:59 10° NNE
NOSS 3-3 (A) 4.1 22:17:49 10° SSW 22:23:33 53° SE 22:30:01 10° NE
NOSS 3-3 (C) 4.1 22:17:55 10° SSW 22:23:40 53° SE 22:30:08 10° NE
Cosmos 1315 Rocket 3.1 22:21:59 10° NNW 22:26:04 67° W 22:29:55 11° S
Meteor 2-2 Rocket 4.3 22:24:57 10° NNW 22:30:51 79° ENE 22:35:55 14° SSE
Resurs 01 Rocket 4.3 22:28:55 10° WSW 22:30:52 13° W 22:32:50 10° WNW
Cosmos 2333 Rocket 2.2 22:25:40 10° SSW 22:31:20 77° ESE 22:37:06 10° NNE
Cosmos 2184 Rocket 4.1 22:27:10 10° S 22:33:15 62° E 22:39:29 10° NNE
Cosmos 2221 2.5 22:31:16 10° N 22:35:41 87° ENE 22:39:20 15° S
Cosmos 1818 4.2 22:32:17 10° WSW 22:37:41 62° NW 22:43:07 10° NE
BREEZE-M DEB (TANK) 2.1 22:33:24 10° W 22:38:57 58° S 22:41:22 11° ESE
Cosmos 773 Rocket 4.4 22:34:10 10° SSW 22:39:27 70° WNW 22:44:46 10° NNE
ATLAS 2AS CENTAUR R/B 3.0 22:31:45 10° NW 22:39:32 79° NE 22:46:25 11° SE
ERS-1 Rocket 4.1 22:37:30 10° SSW 22:42:12 39° W 22:46:56 10° NNW
GEOS 3 Rocket 3.9 22:37:03 10° NE 22:42:28 77° NW 22:47:51 10° SW
Cosmos 1892 3.1 22:41:59 17° SSE 22:44:38 46° E 22:48:18 10° NNE
Aureole 2 Rocket 4.0 22:44:40 10° N 22:46:53 20° NE 22:48:59 11° ESE
Cosmos 1606 4.5 22:46:28 10° NNE 22:49:34 22° ENE 22:52:19 12° ESE
Cosmos 2278 Rocket 2.3 22:44:46 10° NNW 22:50:28 74° WSW 22:54:59 16° SSE
USA 215 3.2 22:45:09 10° ENE 22:51:42 66° SE 22:58:13 10° SW
ATLAS 5 CENTAUR R/B 2.5 22:51:02 10° WSW 22:55:15 53° NW 23:00:08 10° NE
Cosmos 158 Rocket 4.4 22:52:56 17° SSE 22:56:18 39° ESE 23:00:52 10° NE
Lacrosse 5 rocket 2.6 22:53:39 10° WNW 22:57:38 42° N 23:01:24 10° ENE
Cosmos 1943 Rocket 3.7 22:53:05 10° NNW 22:58:08 31° NE 23:03:07 10° ESE
SPOT 5 4.3 22:53:44 10° SSW 22:58:13 32° W 23:02:32 10° NNW
Spot 4 4.0 22:59:07 18° SSE 23:02:42 69° ENE 23:07:29 10° N
SL-16 R/B 3.6 23:00:47 15° SE 23:03:36 22° E 23:07:48 10° NE
Cosmos 2056 Rocket 3.8 22:58:18 10° NNW 23:03:43 68° ENE 23:07:58 17° SE
Cosmos 2058 2.9 23:01:11 17° S 23:04:21 76° E 23:08:30 10° NNE
Cosmos 1408 2.9 23:03:24 21° SSE 23:05:27 47° E 23:08:55 10° NNE
Nadezhda 3 Rocket 4.1 23:02:25 10° N 23:08:50 88° W 23:13:54 17° S
Cosmos 2154 Rocket 4.0 23:07:49 15° S 23:13:05 78° E 23:19:20 10° NNE
Cosmos 1076 Rocket 3.4 23:12:54 17° S 23:16:10 87° E 23:20:28 10° NNE
Cosmos 2341 Rocket 4.4 23:11:47 18° SSE 23:16:17 50° E 23:22:14 10° NNE
In-Cosmos 22 Rocket 4.1 23:11:39 13° SSW 23:16:27 85° WNW 23:21:49 10° NNE
Cosmos 1680 Rocket 3.6 23:15:58 15° S 23:20:24 68° ESE 23:25:42 10° NNE
Cosmos 2074 Rocket 4.3 23:14:14 10° SSW 23:20:26 65° WNW 23:26:38 10° N
USA 267 3.6 23:21:24 17° SSE 23:26:14 48° SW 23:32:34 10° WNW
Cosmos 2151 3.3 23:23:52 22° SSE 23:26:24 52° E 23:30:34 10° NNE
Helios 1A 4.3 23:24:53 14° ESE 23:27:55 32° ENE 23:31:38 10° N
CZ-4C R/B 3.7 23:24:15 10° NW 23:30:40 48° NNE 23:38:12 10° ESE
Cosmos 1452 Rocket 4.3 23:25:35 10° NNW 23:30:41 46° ENE 23:35:06 13° SE
BREEZE-M DEB (TANK) 3.9 23:27:56 10° W 23:31:42 18° SW 23:32:45 16° SSW
COSMOS 2455 3.5 23:26:12 10° NW 23:32:10 55° NE 23:38:05 10° ESE
ATLAS CENTAUR R/B 3.4 23:31:38 10° W 23:33:04 12° WSW 23:34:31 10° SW
Cosmos 1825 2.1 23:32:56 24° S 23:35:03 71° E 23:38:51 10° NNE
SL-8 Rocket 4.4 23:30:59 19° SSE 23:35:13 51° E 23:41:09 10° NNE
Cosmos 1933 3.9 23:31:57 10° N 23:35:51 48° ENE 23:38:13 21° SE
Cosmos 1340 4.1 23:34:23 19° SE 23:35:58 25° E 23:39:04 10° NE
Cosmos 1151 Rocket 3.4 23:33:07 10° N 23:37:25 55° ENE 23:40:03 22° SSE
Cosmos 923 Rocket 4.2 23:32:44 10° SSW 23:37:59 74° WNW 23:43:19 10° NNE
ALOS 2 2.6 23:35:27 22° SSE 23:38:13 75° ENE 23:42:37 10° NNW
EO 1 Delta rocket 4.2 23:33:42 10° N 23:38:40 88° E 23:43:18 17° S
Cosmos 2369 Rocket 3.3 23:37:36 10° NNW 23:42:54 41° NE 23:48:11 10° ESE
APEX 3.4 23:40:16 10° NNW 23:42:55 39° NE 23:44:22 21° ESE
Cosmos 1980 3.7 23:38:47 10° SSW 23:44:27 85° WNW 23:50:09 10° NNE
Cosmos 44 3.8 23:43:38 24° SSE 23:45:21 33° ESE 23:49:20 10° NE
GP-B 3.3 23:41:50 10° N 23:46:15 63° E 23:48:50 24° SSE
Cosmos 371 Rocket 3.4 23:42:12 10° NNW 23:47:06 73° ENE 23:50:25 20° SE
SL-4 R/B 1.4 23:48:59 33° E 23:49:13 34° ENE 23:51:09 10° N
COSMOS 2428 3.9 23:44:28 10° WSW 23:49:51 43° NW 23:55:18 10° NNE
Terra 4.1 23:51:04 10° WSW 23:53:43 15° W 23:56:23 10° NW
Cosmos 1624 Rocket 4.4 23:48:59 10° NNW 23:54:05 52° WSW 23:57:16 22° S
CREW DRAGON DEMO-1 DEB 3.7 23:54:48 30° SE 23:54:48 30° SE 23:57:10 10° E
